Augusta, Maine, United States (04330)
Lat: 44.31N, Lon: 69.78W
Wx Zone: MEZ021
Local Info
Past Weather Observations for Wednesday, April 16, 2014

NOTE: This archive is for the closest National Weather Service station to Augusta. Information may differ from the station used for current weather conditions.

Time Weather Temperature Dewpoint Humidity Pressure Winds Precip Visibility
23:53
Clear
23°F / -5°C 14°F / -10°C 68% 30.66 in
(1038 mb)
N 6.9 mph
(N 11 kph)
- 10SM
22:53
Clear
25°F / -4°C 12°F / -11°C 59% 30.66 in
(1038 mb)
NNW 5.8 mph
(NNW 9 kph)
- 10SM
21:53
Clear
27°F / -3°C 12°F / -11°C 54% 30.63 in
(1037 mb)
NNW 5.8 mph
(NNW 9 kph)
- 10SM
20:53
Clear
27°F / -3°C 12°F / -11°C 54% 30.6 in
(1036 mb)
N 9.2 mph
(N 15 kph)
- 10SM
19:53
Clear
28°F / -2°C 10°F / -12°C 47% 30.57 in
(1035 mb)
NNW 6.9 mph
(NNW 11 kph)
- 10SM
18:53
Clear
30°F / -1°C 10°F / -12°C 43% 30.51 in
(1033 mb)
NW 9.2 mph
(NW 15 kph)
- 10SM
17:53
Clear
34°F / 1°C 10°F / -12°C 38% 30.45 in
(1031 mb)
NW 9.2 mph
(NW 15 kph)
- 10SM
16:53
Clear
34°F / 1°C 9°F / -13°C 35% 30.45 in
(1031 mb)
NW 9.2 mph
(NW 15 kph)
- 10SM
15:53
Clear
36°F / 2°C 9°F / -13°C 32% 30.39 in
(1029 mb)
NW 16.1 mph
(NW 26 kph)
- 10SM
14:53
Clear
36°F / 2°C 7°F / -14°C 30% 30.36 in
(1028 mb)
NW 21.9 mph
(NW 35 kph)
- 10SM
13:53
Clear
36°F / 2°C 12°F / -11°C 38% 30.33 in
(1027 mb)
NW 13.8 mph
(NW 22 kph)
- 10SM
12:53
Clear
34°F / 1°C 12°F / -11°C 41% 30.3 in
(1026 mb)
WNW 13.8 mph
(WNW 22 kph)
- 10SM
11:53
Clear
34°F / 1°C 16°F / -9°C 48% 30.24 in
(1024 mb)
NW 11.5 mph
(NW 19 kph)
- 10SM
10:53
Partly Cloudy
30°F / -1°C 12°F / -11°C 47% 30.21 in
(1023 mb)
WNW 16.1 mph
(WNW 26 kph)
- 10SM
09:53
Clear
30°F / -1°C 12°F / -11°C 47% 30.18 in
(1022 mb)
NW 17.3 mph
(NW 28 kph)
- 10SM
08:53
Clear
28°F / -2°C 12°F / -11°C 51% 30.15 in
(1021 mb)
NW 13.8 mph
(NW 22 kph)
- 10SM
07:53
Clear
27°F / -3°C 14°F / -10°C 59% 30.09 in
(1019 mb)
NW 17.3 mph
(NW 28 kph)
- 10SM
06:53
Clear
27°F / -3°C 18°F / -8°C 69% 30.01 in
(1016 mb)
NW 13.8 mph
(NW 22 kph)
- 10SM
05:53
Partly Cloudy
27°F / -3°C 18°F / -8°C 69% 29.95 in
(1014 mb)
NW 12.7 mph
(NW 20 kph)
- 10SM
04:53
Mostly Cloudy
27°F / -3°C 19°F / -7°C 74% 29.89 in
(1012 mb)
NW 11.5 mph
(NW 19 kph)
0.00 in
(0.00 mm)
10SM
04:27
Overcast
28°F / -2°C 19°F / -7°C 69% 29.89 in
(1012 mb)
NW 17.3 mph
(NW 28 kph)
0.00 in
(0.00 mm)
10SM
04:14
Overcast
Unknown Precip
27°F / -3°C 21°F / -6°C 80% 29.83 in
(1010 mb)
NW 13.8 mph
(NW 22 kph)
0.00 in
(0.00 mm)
8SM
04:06
Overcast
Light Snow
27°F / -3°C 25°F / -4°C 93% 29.83 in
(1010 mb)
NW 17.3 mph
(NW 28 kph)
0.00 in
(0.00 mm)
2SM
03:53
Obscured
Snow
27°F / -3°C 27°F / -3°C 100% 29.83 in
(1010 mb)
NNW 24.2 mph
(NNW 39 kph)
0.05 in
(1.27 mm)
1/2SM
03:12
Overcast
Snow
30°F / -1°C 28°F / -2°C 93% 29.8 in
(1009 mb)
NW 9.2 mph
(NW 15 kph)
0.02 in
(0.51 mm)
1/2SM
03:04
Overcast
Light Snow
30°F / -1°C 28°F / -2°C 93% 29.8 in
(1009 mb)
NW 13.8 mph
(NW 22 kph)
0.01 in
(0.25 mm)
1SM
02:53
Overcast
Light Snow
30°F / -1°C 28°F / -2°C 93% 29.77 in
(1008 mb)
NW 13.8 mph
(NW 22 kph)
0.07 in
(1.78 mm)
2 1/2SM
02:19
Overcast
Light Snow
32°F / 0°C 30°F / -1°C 93% 29.74 in
(1007 mb)
NW 8.1 mph
(NW 13 kph)
0.03 in
(0.76 mm)
1 1/2SM
02:09
Overcast
Light Snow
32°F / 0°C 30°F / -1°C 93% 29.74 in
(1007 mb)
NW 11.5 mph
(NW 19 kph)
0.01 in
(0.25 mm)
2SM
01:53
Overcast
Unknown Precip
32°F / 0°C 32°F / 0°C 100% 29.74 in
(1007 mb)
NW 8.1 mph
(NW 13 kph)
0.09 in
(2.29 mm)
4SM
01:50
Overcast
Unknown Precip
32°F / 0°C 32°F / 0°C 100% 29.74 in
(1007 mb)
NW 5.8 mph
(NW 9 kph)
0.09 in
(2.29 mm)
5SM
01:43
Overcast
Rain
32°F / 0°C 30°F / -1°C 93% 29.74 in
(1007 mb)
NW 6.9 mph
(NW 11 kph)
0.08 in
(2.03 mm)
4SM
01:27
Overcast
Light Rain
34°F / 1°C 30°F / -1°C 87% 29.74 in
(1007 mb)
NW 12.7 mph
(NW 20 kph)
0.06 in
(1.52 mm)
5SM
00:53
Overcast
Rain
36°F / 2°C 34°F / 1°C 93% 29.74 in
(1007 mb)
NW 12.7 mph
(NW 20 kph)
0.06 in
(1.52 mm)
4SM
Time Weather Temperature Dewpoint Humidity Pressure Winds Precip Visibility


Weather for websites

WeatherForYou.com, LLC is not responsible for any damages or problems caused by this service. Current weather conditions are obtained from the closest station including government and personal stations which may have varying degrees of accuracy. Weather forecasts are derived from the NOAA NDFD. Like all things, this site belongs to Jesus Christ... He just trusts me to maintain it. If you have any questions or comments email webmaster@weatherforyou.com

Copyright © 2014, WeatherForYou.com LLC. All rights reserved.